QPF
0.00 0.00 0.00 0.00 0.00 0.00 0.00 0.00 0.00 0.00 0.00 0.00 0.00 0.00 0.00 0.00 0.00 0.00 0.00 0.00 0.00 0.00 0.00 0.00 0.00 0.00 0.00 0.00 0.00 0.00 0.00 0.00 0.00 0.00 0.00 0.00 0.00 0.00 0.00 0.00 0.00 0.00 0.00 0.00 0.00 0.00 0.00
0.00 0.00 0.00 0.00 0.00 0.00 0.00 0.00 0.00 0.00 0.00 0.00 0.00 0.00 0.00 0.00 0.00 0.00 0.00 0.00 0.00 0.00 0.00 0.00 0.00 0.00 0.00 0.00 0.00 0.00 0.00 0.00 0.00 0.00 0.00 0.00 0.00 0.00 0.00 0.00 0.00 0.00 0.00 0.00 0.00 0.00 0.00
0.00 0.00 0.00 0.00 0.00 0.00 0.00 0.00 0.00 0.00 0.00 0.00 0.00 0.00 0.00 0.00 0.00 0.00 0.00 0.00 0.00 0.00 0.00 0.00 0.00 0.00 0.00 0.00 0.00 0.00 0.00 0.00 0.00 0.00 0.00 0.00 0.00 0.00 0.00 0.00 0.00 0.00 0.00 0.00 0.00 0.00 0.00
0.00 0.00 0.00 0.00 0.00 0.00 0.00 0.00 0.00 0.00 0.00 0.00 0.00 0.00 0.00 0.00 0.00 0.00 0.00 0.00 0.00 0.00 0.00 0.00 0.00 0.00 0.00 0.00 0.00 0.00 0.00 0.00 0.00 0.00 0.00 0.00 0.00 0.00 0.00 0.00 0.00 0.00 0.00 0.00 0.00 0.00 0.00
0.00 0.00 0.00 0.00 0.00 0.00 0.00 0.00 0.00 0.00 0.00 0.00 0.00 0.00 0.00 0.00 0.00 0.00 0.00 0.00 0.00 0.00 0.00 0.00 0.00 0.00 0.00 0.00 0.00 0.00 0.00 0.00 0.00 0.00 0.00 0.00 0.00 0.00 0.00 0.00 0.00 0.00 0.00 0.00 0.00 0.00 0.00
0.00 0.00 0.00 0.00 0.00 0.00 0.00 0.00 0.00 0.00 0.00 0.00 0.00 0.00 0.00 0.00 0.00 0.00 0.00 0.00 0.00 0.00 0.00 0.00 0.00 0.00 0.00 0.00 0.00 0.00 0.00 0.00 0.00 0.00 0.00 0.00 0.00 0.00 0.00 0.00 0.00 0.00 0.00 0.00 0.00 0.00 0.00
0.00 0.00 0.00 0.00 0.00 0.00 0.00 0.00 0.00 0.00 0.00 0.00 0.00 0.00 0.00 0.00 0.00 0.00 0.00 0.00 0.00 0.00 0.00 0.00 0.00 0.00 0.00 0.00 0.00 0.00 0.00 0.00 0.00 0.00 0.00 0.00 0.00 0.00 0.00 0.00 0.00 0.00 0.00 0.00 0.00 0.00 0.00
0.00 0.00 0.00 0.00 0.00 0.00 0.00 0.00 0.00 0.00 0.00 0.00 0.00 0.00 0.00 0.00 0.00 0.00 0.00 0.00 0.00 0.00 0.00 0.00 0.00 0.00 0.00 0.00 0.00 0.00 0.00 0.00 0.00 0.00 0.00 0.00 0.00 0.00 0.00 0.00 0.00 0.00 0.00 0.00 0.00 0.00 0.00
0.00 0.00 0.00 0.00 0.00 0.00 0.00 0.00 0.00 0.00 0.00 0.00 0.00 0.00 0.00 0.00 0.00 0.00 0.00 0.00 0.00 0.00 0.00 0.00 0.00 0.00 0.00 0.00 0.00 0.00 0.00 0.00 0.00 0.00 0.00 0.00 0.00 0.00 0.00 0.00 0.00 0.00 0.00 0.00 0.00 0.00 0.00
0.00 0.00 0.00 0.00 0.00 0.00 0.00 0.00 0.00 0.00 0.00 0.00 0.00 0.00 0.00 0.00 0.00 0.00 0.00 0.00 0.00 0.00 0.00 0.00 0.00 0.00 0.00 0.00 0.00 0.00 0.00 0.00 0.00 0.00 0.00 0.00 0.00 0.00 0.00 0.00 0.00 0.00 0.00 0.00 0.00 0.00 0.00
0.00 0.00 0.00 0.00 0.00 0.00 0.00 0.00 0.00 0.00 0.00 0.00 0.00 0.00 0.00 0.00 0.00 0.00 0.00 0.00 0.00 0.00 0.00 0.00 0.00 0.00 0.00 0.00 0.00 0.00 0.00 0.00 0.00 0.00 0.00 0.00 0.00 0.00 0.00 0.00 0.00 0.00 0.00 0.00 0.00 0.00 0.00
0.00 0.00 0.00 0.00 0.00 0.00 0.00 0.00 0.00 0.00 0.00 0.00 0.00 0.00 0.00 0.00 0.00 0.00 0.00 0.00 0.00 0.00 0.00 0.00 0.00 0.00 0.00 0.00 0.00 0.00 0.00 0.00 0.00 0.00 0.00 0.00 0.00 0.00 0.00 0.00 0.00 0.00 0.00 0.00 0.00 0.00 0.00
0.00 0.00 0.00 0.00 0.00 0.00 0.00 0.00 0.00 0.00 0.00 0.00 0.00 0.00 0.00 0.00 0.00 0.00 0.00 0.00 0.00 0.00 0.00 0.00 0.00 0.00 0.00 0.00 0.00 0.00 0.00 0.00 0.00 0.00 0.00 0.00 0.00 0.00 0.00 0.00 0.00 0.00 0.00 0.00 0.00 0.00 0.00
0.00 0.00 0.00 0.00 0.00 0.00 0.00 0.00 0.00 0.00 0.00 0.00 0.00 0.00 0.00 0.00 0.00 0.00 0.00 0.00 0.00 0.00 0.00 0.00 0.00 0.00 0.00 0.00 0.00 0.00 0.00 0.00 0.00 0.00 0.00 0.00 0.00 0.00 0.00 0.00 0.00 0.00 0.00 0.00 0.00 0.00 0.00
0.00 0.00 0.00 0.00 0.00 0.00 0.00 0.00 0.00 0.00 0.00 0.00 0.00 0.00 0.00 0.00 0.00 0.00 0.00 0.00 0.00 0.00 0.00 0.00 0.00 0.00 0.00 0.00 0.00 0.00 0.00 0.00 0.00 0.00 0.00 0.00 0.00 0.00 0.00 0.00 0.00 0.00 0.00 0.00 0.00 0.00 0.00
0.00 0.00 0.00 0.00 0.00 0.00 0.00 0.00 0.00 0.00 0.00 0.00 0.00 0.00 0.00 0.00 0.00 0.00 0.00 0.00 0.00 0.00 0.00 0.00 0.00 0.00 0.00 0.00 0.00 0.00 0.00 0.00 0.00 0.00 0.00 0.00 0.00 0.00 0.00 0.00 0.00 0.00 0.00 0.00 0.00 0.00 0.00
0.00 0.00 0.00 0.00 0.00 0.00 0.00 0.00 0.00 0.00 0.00 0.00 0.00 0.00 0.00 0.00 0.00 0.00 0.00 0.00 0.00 0.00 0.00 0.00 0.00 0.00 0.00 0.00 0.00 0.00 0.00 0.00 0.00 0.00 0.00 0.00 0.00 0.00 0.00 0.00 0.00 0.00 0.00 0.00 0.00 0.00 0.00
0.00 0.00 0.00 0.00 0.00 0.00 0.00 0.00 0.00 0.00 0.00 0.00 0.00 0.00 0.00 0.00 0.00 0.00 0.00 0.00 0.00 0.00 0.00 0.00 0.00 0.00 0.00 0.00 0.00 0.00 0.00 0.00 0.00 0.00 0.00 0.00 0.00 0.00 0.00 0.00 0.00 0.00 0.00 0.00 0.00 0.00 0.00
0.00 0.00 0.00 0.00 0.00 0.00 0.00 0.00 0.00 0.00 0.00 0.00 0.00 0.00 0.00 0.00 0.00 0.00 0.00 0.00 0.00 0.00 0.00 0.00 0.00 0.00 0.00 0.00 0.00 0.00 0.00 0.00 0.00 0.00 0.00 0.00 0.00 0.00 0.00 0.00 0.00 0.00 0.00 0.00 0.00 0.00 0.00
0.00 0.00 0.00 0.00 0.00 0.00 0.00 0.00 0.00 0.00 0.00 0.00 0.00 0.00 0.00 0.00 0.00 0.00 0.00 0.00 0.00 0.00 0.00 0.00 0.00 0.00 0.00 0.00 0.00 0.00 0.00 0.00 0.00 0.00 0.00 0.00 0.00 0.00 0.00 0.00 0.00 0.00 0.00 0.00 0.00 0.00 0.00
0.00 0.00 0.00 0.00 0.00 0.00 0.00 0.00 0.00 0.00 0.00 0.00 0.00 0.00 0.00 0.00 0.00 0.00 0.00 0.00 0.00 0.00 0.00 0.00 0.00 0.00 0.00 0.00 0.00 0.00 0.00 0.00 0.00 0.00 0.00 0.00 0.00 0.00 0.00 0.00 0.00 0.00 0.00 0.00 0.00 0.00 0.00
0.00 0.00 0.00 0.00 0.00 0.00 0.00 0.00 0.00 0.00 0.00 0.00 0.00 0.00 0.00 0.00 0.00 0.00 0.00 0.00 0.00 0.00 0.00 0.00 0.00 0.00 0.00 0.00 0.00 0.00 0.00 0.00 0.00 0.00 0.00 0.00 0.00 0.00 0.00 0.00 0.00 0.00 0.00 0.00 0.00 0.00 0.00
0.00 0.00 0.00 0.00 0.00 0.00 0.00 0.00 0.00 0.00 0.00 0.00 0.00 0.00 0.00 0.00 0.00 0.00 0.00 0.00 0.00 0.00 0.00 0.00 0.00 0.00 0.00 0.00 0.00 0.00 0.00 0.00 0.00 0.00 0.00 0.00 0.00 0.00 0.00 0.00 0.00 0.00 0.00 0.00 0.00 0.00 0.00
0.00 0.00 0.00 0.00 0.00 0.00 0.00 0.00 0.00 0.00 0.00 0.00 0.00 0.00 0.00 0.00 0.00 0.00 0.00 0.00 0.00 0.00 0.00 0.00 0.00 0.00 0.00 0.00 0.00 0.00 0.00 0.00 0.00 0.00 0.00 0.00 0.00 0.00 0.00 0.00 0.00 0.00 0.00 0.00 0.00 0.00 0.00
0.00 0.00 0.00 0.00 0.00 0.00 0.00 0.00 0.00 0.00 0.00 0.00 0.00 0.00 0.00 0.00 0.00 0.00 0.00 0.00 0.00 0.00 0.00 0.00 0.00 0.00 0.00 0.00 0.00 0.00 0.00 0.00 0.00 0.00 0.00 0.00 0.00 0.00 0.00 0.00 0.00 0.00 0.00 0.00 0.00 0.00 0.00
0.00 0.00 0.00 0.00 0.00 0.00 0.00 0.00 0.00 0.00 0.00 0.00 0.00 0.00 0.00 0.00 0.00 0.00 0.00 0.00 0.00 0.00 0.00 0.00 0.00 0.00 0.00 0.00 0.00 0.00 0.00 0.00 0.00 0.00 0.00 0.00 0.00 0.00 0.00 0.00 0.00 0.00 0.00 0.00 0.00 0.00 0.00
0.00 0.00 0.00 0.00 0.00 0.00 0.00 0.00 0.00 0.00 0.00 0.00 0.00 0.00 0.00 0.00 0.00 0.00 0.00 0.00 0.00 0.00 0.00 0.00 0.00 0.00 0.00 0.00 0.00 0.00 0.00 0.00 0.00 0.00 0.00 0.00 0.00 0.00 0.00 0.00 0.00 0.00 0.00 0.00 0.00 0.00 0.00
0.00 0.00 0.00 0.00 0.00 0.00 0.00 0.00 0.00 0.00 0.00 0.00 0.00 0.00 0.00 0.00 0.00 0.00 0.00 0.00 0.00 0.00 0.00 0.00 0.00 0.00 0.00 0.00 0.00 0.00 0.00 0.00 0.00 0.00 0.00 0.00 0.00 0.00 0.00 0.00 0.00 0.00 0.00 0.00 0.00 0.00 0.00
0.00 0.00 0.00 0.00 0.00 0.00 0.00 0.00 0.00 0.00 0.00 0.00 0.00 0.00 0.00 0.00 0.00 0.00 0.00 0.00 0.00 0.00 0.00 0.00 0.00 0.00 0.00 0.00 0.00 0.00 0.00 0.00 0.00 0.00 0.00 0.00 0.00 0.00 0.00 0.00 0.00 0.00 0.00 0.00 0.00 0.00 0.00
MSLP
1024.46 1024.43 1024.32 1024.17 1024.00 1023.84 1023.58 1023.30 1023.06 1022.86 1022.62 1022.47 1022.33 1022.16 1021.94 1021.67 1021.35 1021.04 1020.73 1020.41 1020.07 1019.73 1019.37 1019.05 1018.75 1018.54 1018.30 1017.89 1019.95 1020.19 1019.94 1019.15 1018.09 1017.11 1016.43 1015.70 1015.02 1014.91 1015.54 1016.69 1017.40 1017.93 1019.31 1020.10 1020.82 1021.39 1021.51
1024.78 1024.67 1024.56 1024.39 1024.23 1024.03 1023.82 1023.56 1023.30 1023.05 1022.83 1022.62 1022.43 1022.26 1022.05 1021.77 1021.43 1021.12 1020.81 1020.46 1020.14 1019.82 1019.46 1019.11 1018.74 1018.42 1017.71 1019.06 1020.87 1020.64 1020.17 1019.43 1018.98 1018.00 1017.54 1016.84 1016.77 1016.22 1016.53 1017.63 1018.07 1019.16 1019.51 1020.18 1021.01 1021.25 1021.28
1025.04 1024.91 1024.78 1024.64 1024.46 1024.32 1024.08 1023.77 1023.47 1023.20 1022.95 1022.73 1022.55 1022.37 1022.11 1021.79 1021.46 1021.15 1020.82 1020.43 1020.13 1019.85 1019.55 1019.25 1018.89 1018.14 1018.50 1021.07 1021.07 1020.66 1020.18 1020.06 1019.62 1019.17 1018.40 1018.54 1017.91 1017.03 1017.22 1018.20 1019.34 1019.39 1019.37 1020.06 1020.56 1021.01 1021.12
1025.34 1025.19 1025.08 1024.87 1024.71 1024.55 1024.29 1023.98 1023.68 1023.39 1023.14 1022.92 1022.68 1022.43 1022.13 1021.79 1021.46 1021.11 1020.77 1020.42 1020.14 1019.82 1019.52 1019.28 1018.99 1018.05 1019.81 1021.28 1020.97 1020.55 1020.33 1019.65 1019.56 1019.49 1019.34 1019.24 1018.67 1018.12 1018.26 1019.23 1019.07 1018.64 1018.88 1018.87 1020.06 1020.78 1021.19
1025.63 1025.50 1025.37 1025.15 1024.98 1024.80 1024.58 1024.21 1023.88 1023.61 1023.35 1023.11 1022.82 1022.48 1022.13 1021.77 1021.40 1021.03 1020.71 1020.36 1020.07 1019.80 1019.55 1019.21 1018.65 1018.28 1020.21 1021.22 1020.92 1020.95 1020.91 1020.50 1019.77 1019.45 1019.36 1019.25 1018.61 1018.31 1019.19 1018.35 1018.09 1017.89 1018.16 1018.64 1019.52 1020.88 1021.18
1025.85 1025.81 1025.63 1025.46 1025.31 1025.13 1024.80 1024.40 1024.07 1023.81 1023.57 1023.30 1022.93 1022.50 1022.09 1021.74 1021.36 1020.92 1020.57 1020.31 1019.94 1019.76 1019.19 1018.86 1018.75 1019.24 1020.69 1021.62 1021.68 1021.45 1021.20 1020.87 1019.98 1019.22 1018.92 1018.39 1018.05 1018.02 1018.70 1018.25 1019.22 1019.32 1019.33 1019.33 1019.86 1020.22 1020.59
1026.17 1026.08 1025.85 1025.74 1025.65 1025.38 1025.01 1024.60 1024.30 1024.05 1023.77 1023.39 1022.93 1022.50 1022.10 1021.70 1021.34 1020.94 1020.30 1020.20 1020.33 1019.93 1020.48 1021.53 1021.91 1021.70 1022.15 1022.30 1021.91 1021.32 1021.47 1020.59 1019.54 1018.82 1018.62 1018.80 1018.64 1019.79 1021.02 1021.59 1021.77 1021.70 1021.34 1020.89 1020.27 1021.10 1021.15
1026.48 1026.27 1026.12 1026.05 1025.95 1025.62 1025.23 1024.88 1024.56 1024.27 1023.92 1023.42 1023.00 1022.57 1022.10 1021.69 1021.40 1020.92 1020.28 1020.58 1022.32 1022.56 1022.51 1022.64 1022.55 1022.61 1023.11 1023.16 1022.10 1021.68 1021.46 1020.43 1019.57 1019.41 1019.23 1019.42 1020.64 1022.48 1023.16 1023.10 1022.86 1022.24 1022.09 1021.39 1020.98 1021.88 1021.54
1026.77 1026.51 1026.41 1026.34 1026.21 1025.89 1025.54 1025.19 1024.82 1024.43 1024.02 1023.59 1023.09 1022.56 1022.07 1021.69 1021.38 1021.04 1021.43 1022.66 1023.11 1022.67 1021.80 1022.80 1022.96 1022.97 1023.48 1023.40 1023.32 1023.26 1023.00 1021.97 1021.29 1020.71 1020.71 1020.85 1023.10 1023.87 1024.03 1023.74 1023.58 1022.64 1023.01 1023.01 1023.40 1022.43 1021.04
1026.95 1026.78 1026.69 1026.59 1026.45 1026.15 1025.79 1025.47 1025.07 1024.62 1024.17 1023.72 1023.18 1022.64 1022.11 1021.57 1021.65 1021.85 1022.34 1023.23 1023.09 1022.83 1021.81 1022.93 1022.80 1023.57 1023.53 1023.38 1023.70 1024.30 1024.19 1023.79 1022.34 1022.30 1022.25 1022.78 1024.04 1024.44 1024.52 1024.57 1024.85 1024.24 1024.37 1024.47 1024.06 1023.48 1022.06
1027.15 1027.07 1026.97 1026.87 1026.67 1026.35 1026.05 1025.68 1025.22 1024.75 1024.31 1023.85 1023.34 1022.85 1022.39 1021.61 1021.85 1022.20 1023.42 1023.30 1023.01 1022.50 1022.18 1023.10 1023.02 1023.50 1023.33 1023.30 1024.08 1023.87 1024.45 1023.11 1023.37 1023.39 1023.40 1023.99 1024.49 1024.82 1025.01 1025.80 1025.98 1025.03 1025.16 1024.77 1024.28 1023.97 1023.18
1027.40 1027.33 1027.24 1027.08 1026.84 1026.57 1026.26 1025.90 1025.48 1024.96 1024.51 1024.07 1023.58 1023.12 1022.52 1022.12 1022.04 1023.53 1023.47 1023.25 1022.67 1022.09 1022.13 1022.77 1022.95 1023.09 1022.61 1023.06 1023.57 1023.55 1023.69 1023.91 1024.34 1023.83 1023.56 1024.48 1025.70 1026.03 1026.38 1026.59 1026.44 1025.86 1024.96 1024.39 1024.46 1023.57 1022.56
1027.64 1027.58 1027.45 1027.27 1027.06 1026.75 1026.39 1025.99 1025.59 1025.15 1024.70 1024.22 1023.84 1023.60 1022.70 1022.80 1023.24 1023.53 1023.33 1022.50 1021.85 1021.59 1022.48 1022.90 1023.10 1023.07 1023.15 1023.22 1023.24 1023.70 1024.09 1025.01 1025.53 1024.89 1024.04 1024.39 1025.42 1026.62 1027.25 1026.77 1026.67 1026.21 1025.52 1024.11 1023.62 1022.49 1020.73
1027.76 1027.69 1027.59 1027.42 1027.14 1026.79 1026.46 1026.10 1025.72 1025.30 1024.77 1024.29 1024.02 1023.78 1023.92 1023.74 1023.69 1023.52 1022.77 1021.82 1021.93 1023.00 1023.02 1023.73 1023.62 1023.15 1023.13 1023.63 1023.55 1023.74 1024.10 1025.36 1026.60 1026.82 1026.32 1025.96 1025.72 1026.82 1027.89 1028.27 1028.02 1027.03 1026.53 1025.46 1024.19 1021.84 1019.77
1027.82 1027.75 1027.67 1027.49 1027.23 1026.94 1026.56 1026.14 1025.69 1025.21 1024.67 1024.22 1024.03 1023.42 1023.20 1023.58 1023.71 1023.36 1022.28 1022.06 1023.57 1024.08 1024.64 1024.37 1023.66 1023.27 1023.21 1023.67 1024.03 1023.61 1025.04 1026.55 1028.06 1028.55 1028.58 1027.75 1026.72 1027.60 1028.41 1028.86 1029.31 1028.29 1027.43 1026.93 1025.29 1023.69 1021.54
1027.89 1027.85 1027.75 1027.57 1027.34 1027.05 1026.67 1026.30 1025.88 1025.36 1024.78 1024.28 1023.49 1023.02 1023.23 1023.74 1023.68 1022.97 1021.92 1023.73 1024.86 1025.54 1025.64 1025.45 1024.62 1024.43 1023.83 1023.70 1023.82 1024.09 1025.14 1027.59 1028.87 1029.69 1029.92 1029.35 1028.71 1027.45 1028.88 1029.55 1029.86 1029.39 1029.21 1027.76 1026.18 1023.90 1020.72
1027.93 1027.91 1027.80 1027.61 1027.42 1027.20 1026.87 1026.54 1026.07 1025.50 1024.89 1024.41 1023.62 1022.72 1023.47 1023.67 1023.56 1022.56 1023.20 1024.66 1025.68 1026.51 1026.70 1026.51 1025.74 1025.34 1025.26 1024.93 1024.83 1025.07 1026.10 1028.13 1029.27 1030.19 1030.54 1030.50 1030.48 1028.11 1028.78 1029.15 1029.40 1030.08 1029.59 1028.57 1027.54 1025.47 1023.21
1027.96 1027.94 1027.83 1027.71 1027.61 1027.40 1027.06 1026.72 1026.29 1025.74 1024.87 1024.32 1023.61 1022.81 1023.28 1023.33 1023.00 1023.47 1024.36 1025.73 1026.64 1026.97 1027.32 1027.23 1026.99 1026.54 1026.07 1025.73 1025.62 1025.64 1026.50 1027.88 1029.73 1030.46 1030.91 1031.38 1030.86 1029.19 1027.84 1029.52 1030.15 1029.87 1029.38 1028.62 1027.73 1026.22 1024.80
1027.97 1027.95 1027.90 1027.83 1027.73 1027.53 1027.22 1026.92 1026.58 1026.18 1025.76 1025.10 1023.86 1023.29 1022.89 1022.89 1023.30 1024.09 1025.46 1026.13 1026.79 1027.28 1027.48 1027.48 1027.33 1027.25 1027.18 1026.62 1026.48 1026.15 1026.97 1028.79 1029.76 1030.39 1030.94 1031.36 1030.51 1029.07 1027.47 1029.29 1029.62 1029.35 1029.07 1028.87 1028.38 1027.04 1024.26
1027.88 1027.82 1027.83 1027.80 1027.71 1027.54 1027.28 1027.00 1026.71 1026.39 1026.04 1025.64 1024.62 1023.95 1023.24 1023.44 1024.86 1024.98 1025.50 1025.94 1026.79 1027.56 1027.65 1027.75 1027.68 1027.69 1027.45 1026.90 1026.74 1026.63 1027.16 1028.90 1029.96 1030.54 1031.22 1031.21 1030.33 1028.82 1027.13 1026.20 1027.42 1028.00 1028.32 1028.95 1028.51 1027.09 1023.63
1027.73 1027.71 1027.70 1027.62 1027.56 1027.42 1027.23 1027.03 1026.86 1026.50 1026.12 1025.89 1025.66 1026.18 1026.69 1025.37 1025.19 1025.46 1025.71 1026.22 1026.45 1027.13 1027.70 1027.88 1027.70 1027.31 1027.10 1026.84 1026.45 1026.52 1027.14 1028.80 1030.10 1030.73 1031.08 1031.23 1029.90 1027.90 1025.94 1025.64 1026.03 1025.52 1026.14 1027.42 1027.37 1024.80 1024.24
1027.61 1027.56 1027.49 1027.44 1027.38 1027.28 1027.18 1027.04 1026.94 1026.77 1026.28 1025.94 1026.61 1027.04 1027.40 1026.75 1026.52 1025.99 1026.11 1025.87 1026.04 1026.47 1027.09 1027.25 1027.51 1026.89 1027.33 1027.17 1026.46 1026.62 1027.13 1027.63 1028.62 1030.44 1030.88 1031.16 1029.60 1028.32 1026.36 1024.54 1024.49 1024.23 1024.43 1025.25 1025.45 1025.05 1023.91
1027.36 1027.34 1027.30 1027.25 1027.19 1027.10 1027.00 1026.93 1026.93 1026.96 1026.84 1026.52 1027.43 1027.69 1027.50 1027.30 1026.80 1026.45 1025.77 1025.90 1026.25 1026.71 1026.56 1026.98 1027.41 1027.71 1027.85 1027.56 1027.56 1027.73 1027.82 1027.89 1028.41 1029.02 1030.00 1030.78 1030.09 1028.57 1025.13 1024.34 1023.81 1022.14 1021.16 1022.54 1022.98 1023.02 1022.37
1027.52 1027.52 1027.48 1027.42 1027.31 1027.19 1027.04 1026.86 1026.75 1026.88 1027.22 1027.10 1027.55 1027.75 1028.16 1027.42 1027.15 1026.37 1026.02 1025.98 1026.08 1026.59 1027.13 1027.67 1028.17 1028.52 1028.63 1028.53 1028.46 1028.20 1028.10 1028.21 1028.23 1028.58 1029.14 1029.38 1029.93 1028.85 1025.78 1024.34 1022.21 1019.48 1019.54 1020.26 1021.07 1020.77 1020.35
1027.82 1027.75 1027.74 1027.78 1027.65 1027.47 1027.22 1026.96 1026.83 1026.75 1027.02 1027.44 1027.72 1027.87 1028.16 1027.62 1026.76 1026.24 1026.19 1026.37 1026.75 1027.23 1027.99 1028.33 1028.71 1029.10 1029.18 1028.90 1028.46 1027.81 1027.53 1027.88 1027.95 1028.66 1029.19 1029.54 1029.54 1028.57 1026.65 1023.75 1020.10 1017.95 1019.08 1019.83 1020.24 1018.49 1017.60
1028.16 1028.14 1027.99 1027.91 1027.80 1027.80 1027.64 1027.23 1026.91 1026.79 1026.85 1027.32 1027.59 1027.72 1028.20 1028.13 1026.82 1025.98 1026.29 1026.72 1027.13 1027.84 1028.74 1028.96 1029.75 1029.85 1029.76 1029.18 1028.78 1027.81 1026.67 1025.76 1027.02 1028.19 1029.34 1029.46 1029.57 1029.03 1026.82 1024.70 1020.84 1017.16 1018.50 1019.15 1019.78 1017.60 1017.00
1028.43 1028.39 1028.28 1027.99 1027.96 1027.96 1027.69 1027.45 1027.19 1026.96 1026.76 1027.02 1027.39 1027.54 1028.02 1028.19 1026.69 1026.51 1026.64 1026.87 1026.94 1027.81 1028.41 1029.16 1029.88 1030.32 1029.96 1029.27 1028.72 1027.45 1025.97 1025.35 1025.55 1026.04 1027.59 1028.26 1028.21 1027.38 1026.14 1024.09 1020.45 1017.31 1018.20 1018.96 1018.18 1016.20 1015.20
1028.79 1028.73 1028.59 1028.40 1028.11 1027.89 1027.71 1027.55 1027.40 1027.25 1026.81 1026.81 1027.47 1027.63 1027.67 1027.73 1026.71 1026.46 1026.35 1026.60 1027.31 1027.53 1027.85 1029.07 1029.98 1030.27 1029.86 1029.36 1028.29 1026.49 1026.13 1025.71 1025.40 1024.09 1024.64 1025.09 1024.92 1024.84 1023.98 1022.32 1018.96 1016.78 1017.90 1017.53 1015.76 1014.52 1015.39
1028.88 1028.88 1028.82 1028.63 1028.36 1028.04 1027.83 1027.79 1027.42 1027.21 1026.95 1026.85 1027.46 1027.86 1027.79 1027.92 1027.02 1026.56 1026.10 1025.83 1025.98 1025.98 1026.69 1028.08 1027.56 1027.62 1027.41 1027.74 1027.55 1026.97 1026.56 1026.04 1024.82 1023.40 1023.51 1023.48 1022.11 1021.35 1020.46 1017.41 1015.73 1015.57 1015.42 1015.04 1015.10 1014.78 1014.45
Thickness
5654 5656 5659 5662 5664 5666 5669 5672 5674 5675 5676 5677 5678 5679 5681 5683 5685 5687 5689 5692 5694 5696 5699 5700 5702 5702 5704 5702 5682 5680 5681 5686 5692 5699 5700 5703 5705 5704 5691 5680 5676 5670 5655 5648 5640 5632 5628
5653 5655 5658 5660 5662 5664 5666 5669 5670 5672 5673 5674 5676 5677 5678 5681 5683 5686 5688 5691 5693 5694 5697 5699 5701 5701 5709 5688 5674 5674 5677 5681 5682 5689 5688 5692 5688 5693 5682 5668 5670 5655 5653 5645 5636 5633 5630
5651 5654 5656 5658 5660 5662 5664 5667 5668 5669 5671 5672 5673 5674 5676 5679 5682 5684 5687 5690 5692 5693 5695 5697 5698 5701 5695 5672 5671 5672 5674 5673 5674 5675 5679 5675 5678 5685 5680 5664 5651 5650 5652 5641 5636 5631 5627
5649 5652 5653 5656 5658 5659 5662 5663 5665 5667 5668 5669 5671 5673 5675 5678 5681 5684 5687 5690 5691 5693 5695 5695 5695 5700 5679 5669 5669 5670 5670 5674 5672 5670 5668 5666 5669 5668 5665 5652 5653 5659 5654 5665 5635 5626 5618
5647 5649 5651 5653 5655 5656 5658 5661 5663 5665 5665 5666 5668 5672 5675 5678 5681 5685 5688 5690 5691 5693 5693 5694 5697 5695 5676 5668 5668 5664 5663 5662 5666 5666 5664 5663 5666 5665 5654 5668 5670 5670 5660 5658 5649 5617 5611
5645 5646 5649 5651 5652 5653 5655 5659 5661 5662 5662 5663 5666 5671 5675 5678 5682 5685 5688 5689 5691 5691 5693 5693 5692 5687 5671 5659 5658 5657 5657 5656 5659 5663 5664 5666 5669 5670 5662 5672 5652 5647 5643 5646 5639 5632 5613
5642 5644 5647 5648 5648 5650 5653 5657 5659 5660 5660 5663 5666 5671 5675 5679 5681 5685 5688 5691 5691 5693 5679 5663 5656 5659 5655 5652 5653 5657 5651 5655 5662 5665 5659 5657 5660 5643 5631 5622 5616 5611 5611 5616 5630 5612 5596
5639 5642 5643 5644 5645 5647 5651 5654 5657 5658 5660 5663 5666 5670 5675 5679 5681 5684 5687 5686 5670 5671 5664 5654 5651 5651 5644 5641 5651 5652 5648 5657 5660 5651 5656 5657 5639 5616 5606 5603 5604 5616 5609 5621 5621 5592 5592
5636 5639 5640 5641 5642 5645 5648 5652 5654 5657 5660 5663 5667 5672 5676 5680 5681 5682 5678 5668 5662 5662 5678 5654 5647 5647 5641 5640 5635 5634 5632 5638 5639 5641 5638 5645 5614 5597 5596 5610 5605 5621 5605 5601 5584 5590 5598
5634 5637 5637 5638 5639 5643 5646 5649 5652 5656 5660 5664 5668 5673 5677 5680 5681 5676 5671 5661 5660 5659 5680 5658 5653 5643 5641 5636 5636 5620 5617 5620 5633 5626 5623 5619 5598 5595 5603 5604 5592 5598 5578 5569 5570 5565 5597
5632 5633 5634 5635 5638 5641 5644 5647 5651 5656 5660 5663 5667 5671 5675 5680 5676 5675 5662 5659 5658 5661 5654 5656 5648 5640 5639 5639 5627 5630 5615 5630 5622 5615 5617 5615 5605 5603 5606 5583 5571 5595 5561 5559 5557 5541 5532
5629 5630 5631 5633 5636 5639 5642 5646 5650 5654 5659 5662 5666 5670 5673 5674 5673 5661 5659 5658 5661 5668 5631 5650 5643 5639 5645 5636 5629 5629 5625 5620 5608 5613 5615 5598 5578 5579 5576 5565 5562 5563 5564 5567 5547 5552 5578
5626 5627 5629 5631 5633 5637 5641 5645 5649 5653 5657 5661 5664 5665 5670 5667 5668 5659 5658 5664 5672 5659 5651 5643 5635 5633 5629 5626 5629 5619 5616 5589 5606 5622 5634 5617 5595 5564 5557 5573 5564 5567 5564 5601 5596 5584 5610
5623 5625 5627 5629 5632 5636 5640 5643 5647 5651 5655 5659 5661 5662 5660 5659 5658 5657 5661 5673 5654 5643 5643 5626 5624 5630 5631 5618 5619 5619 5624 5619 5588 5588 5602 5606 5622 5578 5550 5541 5541 5555 5542 5581 5577 5602 5603
5621 5622 5625 5628 5630 5633 5637 5642 5645 5649 5654 5658 5659 5661 5661 5657 5655 5656 5669 5658 5646 5636 5620 5622 5632 5636 5638 5622 5610 5624 5602 5595 5558 5544 5578 5588 5615 5545 5533 5531 5520 5547 5565 5520 5537 5508 5534
5617 5619 5622 5624 5627 5630 5634 5638 5641 5645 5650 5654 5661 5663 5661 5653 5653 5658 5670 5638 5632 5613 5611 5612 5627 5619 5624 5622 5617 5615 5608 5561 5549 5531 5524 5551 5567 5562 5521 5516 5509 5513 5500 5539 5528 5555 5564
5614 5616 5618 5621 5624 5626 5630 5633 5636 5641 5646 5650 5656 5665 5655 5651 5650 5667 5646 5633 5617 5602 5599 5607 5614 5609 5600 5600 5599 5602 5593 5558 5542 5532 5523 5517 5524 5571 5530 5531 5538 5508 5511 5499 5491 5515 5541
5611 5613 5615 5617 5619 5621 5625 5628 5631 5635 5642 5645 5653 5661 5651 5648 5661 5648 5637 5618 5600 5600 5592 5594 5591 5586 5590 5588 5586 5592 5587 5571 5532 5525 5525 5502 5513 5537 5578 5480 5476 5489 5505 5507 5530 5524 5498
5608 5609 5611 5613 5614 5616 5620 5622 5625 5628 5631 5636 5646 5648 5649 5646 5644 5637 5612 5607 5601 5596 5594 5589 5588 5577 5568 5577 5572 5581 5575 5536 5529 5525 5512 5497 5525 5546 5569 5499 5477 5488 5482 5467 5462 5472 5504
5604 5606 5607 5608 5610 5612 5614 5616 5618 5621 5624 5628 5635 5637 5642 5636 5619 5612 5611 5613 5602 5579 5583 5576 5574 5566 5566 5572 5566 5565 5564 5526 5518 5515 5499 5495 5506 5528 5567 5567 5522 5512 5473 5446 5463 5489 5521
5600 5602 5603 5605 5606 5608 5610 5611 5612 5615 5618 5620 5618 5610 5600 5614 5617 5608 5602 5589 5598 5593 5572 5566 5569 5567 5562 5562 5566 5562 5558 5526 5505 5500 5497 5486 5493 5526 5541 5537 5517 5516 5509 5455 5440 5489 5491
5595 5597 5599 5600 5601 5602 5603 5604 5605 5606 5609 5612 5607 5599 5590 5598 5592 5599 5587 5593 5592 5586 5570 5574 5562 5574 5560 5550 5561 5552 5547 5546 5542 5493 5488 5478 5496 5478 5483 5527 5508 5501 5501 5480 5460 5456 5463
5590 5592 5593 5594 5595 5597 5598 5598 5597 5597 5596 5599 5588 5583 5583 5588 5591 5590 5597 5589 5578 5571 5575 5567 5561 5556 5547 5549 5539 5524 5519 5518 5511 5503 5488 5471 5470 5480 5529 5511 5502 5524 5517 5488 5480 5465 5460
5582 5584 5585 5586 5587 5588 5589 5590 5590 5588 5585 5585 5579 5575 5562 5586 5576 5585 5579 5574 5573 5565 5556 5545 5533 5529 5519 5514 5510 5507 5504 5495 5498 5496 5492 5482 5459 5470 5489 5498 5527 5538 5512 5502 5489 5478 5463
5571 5573 5573 5574 5575 5577 5579 5581 5581 5580 5576 5573 5567 5564 5551 5562 5573 5582 5571 5564 5555 5545 5530 5528 5517 5508 5503 5507 5509 5512 5507 5493 5483 5474 5469 5468 5469 5463 5476 5501 5535 5558 5499 5492 5484 5511 5492
5559 5560 5562 5563 5564 5564 5565 5567 5569 5569 5567 5564 5560 5555 5543 5535 5557 5570 5560 5555 5539 5525 5513 5508 5494 5491 5492 5494 5494 5505 5529 5536 5506 5464 5443 5447 5444 5441 5451 5449 5497 5549 5498 5475 5455 5511 5490
5546 5548 5549 5551 5552 5551 5552 5553 5554 5555 5555 5552 5549 5545 5535 5524 5545 5545 5540 5536 5528 5516 5514 5492 5486 5479 5484 5491 5490 5496 5507 5513 5521 5509 5449 5437 5429 5429 5425 5428 5475 5520 5482 5459 5496 5507 5500
5531 5533 5535 5536 5537 5538 5538 5539 5539 5540 5541 5539 5535 5532 5527 5518 5530 5530 5530 5522 5507 5506 5511 5484 5484 5473 5472 5474 5478 5506 5492 5493 5481 5516 5476 5484 5483 5437 5436 5423 5461 5499 5463 5479 5496 5496 5472
5517 5518 5519 5521 5521 5521 5521 5522 5525 5525 5525 5524 5523 5517 5515 5510 5519 5517 5520 5519 5516 5515 5503 5478 5500 5488 5486 5480 5469 5467 5459 5441 5474 5494 5477 5467 5485 5505 5478 5501 5515 5499 5494 5489 5480 5478 5476